星链-32259 (STARLINK-32259)

导读

STARLINK-32259是美国SpaceX星链星座中的一颗卫星,于2024年8月31日08:00发射升空,属于美国SpaceX公司打造的低轨互联网卫星星座项目的组成部分,主要服务于全球范围的高速卫星互联网接入,为偏远地区、海洋等网络覆盖薄弱区域提供网络连接服务。

基本信息
目录编号:
60937
目录名称:
STARLINK-32259
国际标识:
2024-155P
轨道中心:
EARTH
卫星名称:
星链-32259
卫星全名:
星链-32259 (STARLINK-32259)
卫星状态:
在轨 (已飞行655 天)
发射日期:
2024-08-31 UTC
国别 :
美国 (US)
星等 :
--
轨道信息
数据来源 国际轨道数据
星历时间: 2026-06-17T22:00:01+0800
8小时前
查看轨道信息
半长轴: 6841.089km
偏心率: 0.0001189
轨道倾角: 53.160°
近地点辐角 59.177°
升交点赤经 25.765°
平近点角 304.826°
近地点: 462.138km
远地点: 463.766km
周期: 93.853分钟
每日圈数: 15.343165
详细信息
固有亮度:
5
最大亮度:
2.5
卫星平台:
Starlink V1.0
覆盖范围:
全球
运营商:
太空探索技术公司
运营商所在国:
美国
制造商(研发单位):
太空探索技术公司
制造商所在国:
美国
使用方式:
暂无
卫星简介
Starlink 计划是 SpaceX 推出的全球卫星互联网项目,通过发射低轨道卫星,为全球尤其是偏远地区提供高速、低延迟的互联网服务。自 2019 年起,Starlink 已部署数千颗卫星,旨在缩小全球数字鸿沟,推动互联网普及。该项目还为军事、航空等行业提供通信支持,带来广泛经济效益。
2D轨道图
3D轨道图
轨道高度分析图
轨道倾角分析图
轨道综合分析图
查看轨道综合分析图